星链-5884 (STARLINK-5884 )

导读 | 豆包AI

STARLINK-5884是美国太空探索技术公司SpaceX星链星座的卫星,于2023年3月17日发射入轨,属于星链互联网卫星星座组网卫星。星链系统旨在为全球提供高速低延迟互联网服务,该卫星加入后进一步完善了星座覆盖,提升星座服务能力,该卫星目前已在轨运行超3年,服务全球组网通信。

基本信息
目录编号:
55957
目录名称:
STARLINK-5884
国际标识:
2023-037AV
轨道中心:
EARTH
卫星名称:
星链-5884
卫星全名:
星链-5884 (STARLINK-5884 )
卫星状态:
在轨 (已飞行1094 天)
发射日期:
2023-03-17 UTC
国别 :
美国 (US)
星等 :
--
轨道信息
数据来源 国际轨道数据 AOE轨道数据
星历时间 2026-03-14T04:13:47+0800
1天前
查看轨道信息
2026-03-11T08:00:00+0800
4天前
查看轨道信息
半长轴 6952.131km 6950.1km
偏心率 0.0001145 0.000254
轨道倾角 69.996° 69.999°
近地点辐角 323.145° 275.752°
升交点赤经 254.050° 261.213°
平近点角 36.963° 237.374°
近地点 573.197km 570.197km
远地点 574.791km 573.729km
周期 96.147分钟 96.105分钟
每日圈数 14.977036 14.983603
详细信息
固有亮度:
5
最大亮度:
2.5
卫星平台:
Starlink v1.5
覆盖范围:
全球
运营商:
太空探索技术公司
运营商所在国:
美国
制造商(研发单位):
太空探索技术公司
制造商所在国:
美国
使用方式:
暂无
卫星简介
星链(Starlink)计划是由太空探索技术公司(SpaceX)提出的一个巨型低轨卫星互联网星座项目,计划在2019年至2024年间在太空搭建由约1.2万颗卫星组成的“星链”网络,其中1584颗将部署在地球上空550千米处的近地轨道,并从2020年开始工作。该卫星仍在工作。
2D轨道图
3D轨道图
轨道高度分析图
轨道倾角分析图
轨道综合分析图
查看轨道综合分析图